Location: Six Mile Lake
(44.9000°N, 79.7170°W)
Time: 13:12:56
(UTC-05:00)

N. Korean satellite - Visible Passes

Search period start: 25 January 2022 00:00
Search period end: 04 February 2022 00:00
Orbit: 447 x 491 km, 97.3° (Epoch: 25 January)

Date Brightness Start Highest point End Pass type
(mag) Time Alt. Az. Time Alt. Az. Time Alt. Az.
25 Jan 9.9 04:27:58 10° ENE 04:29:03 12° E 04:29:03 12° E visible
25 Jan 6.7 05:59:17 10° N 06:02:49 49° WNW 06:03:06 47° W visible
26 Jan 6.8 05:30:02 10° NNE 05:33:40 70° ESE 05:34:02 63° SE visible
27 Jan 8.5 05:01:09 10° NNE 05:04:23 29° E 05:04:58 28° ESE visible
27 Jan 7.9 06:34:38 10° NNW 06:37:20 20° WNW 06:39:02 15° WSW visible
28 Jan 9.7 04:33:01 10° ENE 04:34:57 14° E 04:35:54 13° ESE visible
28 Jan 6.9 06:04:50 10° N 06:08:18 42° WNW 06:09:59 25° SW visible
29 Jan 6.5 05:35:29 10° NNE 05:39:08 82° ESE 05:40:57 28° S visible
30 Jan 8.2 05:06:28 10° NNE 05:09:49 34° E 05:11:59 18° SSE visible
30 Jan 8.1 06:40:14 10° NNW 06:42:42 17° WNW 06:45:10 10° WSW visible
31 Jan 9.5 04:38:05 10° NE 04:40:23 16° E 04:42:40 10° SE visible
31 Jan 7.1 06:10:18 10° N 06:13:39 36° WNW 06:16:58 10° SW visible
01 Feb 6.4 05:40:49 10° N 05:44:28 85° WNW 05:48:04 10° SSW visible
02 Feb 7.9 05:11:42 10° NNE 05:15:09 39° E 05:18:32 10° S visible
02 Feb 8.2 06:45:46 10° NNW 06:47:57 15° WNW 06:50:07 10° WSW visible
03 Feb 9.3 04:43:07 10° NE 04:45:41 18° E 04:48:13 10° SE visible
03 Feb 7.3 06:15:39 10° N 06:18:53 31° WNW 06:22:05 10° SW visible
